Location: Lussas
(44.6119°N, 4.4726°E)
Time: 05:48:52
(UTC+00:00)

Cosmos 2074 Rocket - Pass Details

Date: 26 November 2020
Orbit: 968 x 985 km, 82.9° (Epoch: 18 January)

Event Time Altitude Azimuth Distance (km) Brightness Sun altitude
Rises 05:55:44 0° 202° (SSW) 3,649 7.0 -10.1°
Reaches altitude 10° 05:58:18 10° 207° (SSW) 2,705 6.3 -9.7°
Maximum altitude 06:04:19 52° 283° (WNW) 1,194 4.1 -8.7°
Drops below altitude 10° 06:10:23 10° 359° (N) 2,720 6.1 -7.7°
Sets 06:12:59 0° 5° (N) 3,672 6.8 -7.3°
